Location: �terpigny
(49.8910°N, 2.9249°E)
Time: 04:11:14
(UTC+00:00)

Cosmos 332 Rocket - Pass Details

Date: 07 June 2022
Orbit: 681 x 703 km, 74.0° (Epoch: 05 July)

Event Time Altitude Azimuth Distance (km) Brightness Sun altitude
Exits shadow 23:13:08 18° 221° (SW) 1,666 5.4 -16.9°
Maximum altitude 23:16:39 60° 297° (WNW) 784 4.2 -17.0°
Drops below altitude 10° 23:21:25 10° 18° (NNE) 2,139 7.3 -17.1°
Sets 23:23:46 0° 22° (NNE) 3,062 8.2 -17.1°
